EW8163 Weather Reports


Display with metric or nautical units.
time (UTC)temp
F
wind
direction
speed
MPH
gust
MPH
rain 1hr
in
rain 24hr
in
rain mn
in
humidity
%
barometer
mb
20260831063532 48 135 0.0 0.0 0.00 0.00 0.00 84 1020.0
20260831062532 49 135 0.0 0.0 0.00 0.00 0.00 83 1020.0
20260831061532 49 135 0.0 0.0 0.00 0.00 0.00 83 1020.1
20260831060629 49 135 0.0 0.0 0.00 0.00 0.00 83 1020.1
20260831060531 49 135 0.0 0.0 0.00 0.00 0.00 82 1020.1
20260831055430 50 135 0.0 0.0 0.00 0.00 0.00 82 1020.2
20260831053432 50 135 0.0 0.0 0.00 0.00 0.00 81 1020.4
20260831052432 51 135 0.0 0.0 0.00 0.00 0.00 79 1020.4
20260831050430 51 135 0.0 0.0 0.00 0.00 0.00 77 1020.4
20260831045432 52 135 0.0 0.0 0.00 0.00 0.00 77 1020.4
20260831043630 53 135 0.0 0.0 0.00 0.00 0.00 76 1020.4
20260831042632 53 135 0.0 0.0 0.00 0.00 0.00 74 1020.3
20260831040631 55 135 0.0 0.0 0.00 0.00 0.00 72 1020.3
20260831035630 55 135 0.0 0.0 0.00 0.00 0.00 71 1020.1
20260831034632 56 135 0.0 0.0 0.00 0.00 0.00 71 1020.2
20260831033729 56 135 0.0 0.0 0.00 0.00 0.00 70 1019.9
20260831032732 57 135 0.0 0.0 0.00 0.00 0.00 70 1019.9
20260831032632 57 135 0.0 0.0 0.00 0.00 0.00 70 1019.9
20260831031630 57 135 0.0 0.0 0.00 0.00 0.00 70 1019.8
20260831030633 58 135 0.0 0.0 0.00 0.00 0.00 69 1019.7
20260831025632 59 135 0.0 0.0 0.00 0.00 0.00 68 1019.6
20260831024631 60 135 0.0 0.0 0.00 0.00 0.00 66 1019.6
20260831023630 61 135 0.0 0.0 0.00 0.00 0.00 64 1019.6
20260831022632 62 135 0.0 0.0 0.00 0.00 0.00 61 1019.5
20260831021729 63 135 0.0 0.0 0.00 0.00 0.00 60 1019.5
20260831020730 65 135 0.0 0.0 0.00 0.00 0.00 56 1019.5
20260831015731 67 135 0.0 0.0 0.00 0.00 0.00 54 1019.5
20260831015631 67 135 0.0 0.0 0.00 0.00 0.00 54 1019.5
20260831013731 69 225 0.0 0.0 0.00 0.00 0.00 47 1019.3
20260831012747 70 180 0.0 0.0 0.00 0.00 0.00 44 1019.3
20260831011733 72 243 3.0 5.0 0.00 0.00 0.00 42 1019.3
20260831011632 72 260 2.0 6.0 0.00 0.00 0.00 41 1019.3
20260831005632 76 157 0.0 0.0 0.00 0.00 0.00 38 1019.3
20260831004632 76 231 2.0 4.0 0.00 0.00 0.00 36 1019.3
20260831003731 77 251 1.0 5.0 0.00 0.00 0.00 35 1019.3
20260831002730 77 225 0.0 2.0 0.00 0.00 0.00 35 1019.2
20260831002631 77 241 1.0 4.0 0.00 0.00 0.00 35 1019.3
20260831001631 77 251 2.0 3.0 0.00 0.00 0.00 36 1019.3
20260831000631 77 274 1.0 4.0 0.00 0.00 0.00 34 1019.3
20260830235632 77 178 1.0 3.0 0.00 0.00 0.00 32 1019.2
20260830235531 77 157 0.0 3.0 0.00 0.00 0.00 33 1019.3
20260830234630 78 249 3.0 5.0 0.00 0.00 0.00 33 1019.3
20260830234532 78 214 3.0 6.0 0.00 0.00 0.00 33 1019.3
20260830233530 78 309 2.0 4.0 0.00 0.00 0.00 32 1019.3
20260830232629 78 268 1.0 6.0 0.00 0.00 0.00 31 1019.3
20260830232531 78 267 3.0 7.0 0.00 0.00 0.00 32 1019.3
20260830231532 79 217 2.0 3.0 0.00 0.00 0.00 30 1019.3
20260830231430 79 317 3.0 6.0 0.00 0.00 0.00 30 1019.4
20260830230432 78 306 0.0 4.0 0.00 0.00 0.00 33 1019.3
20260830224430 78 195 3.0 7.0 0.00 0.00 0.00 35 1019.6
20260830224331 78 246 5.0 10.0 0.00 0.00 0.00 34 1019.6
20260830223329 78 236 3.0 5.0 0.00 0.00 0.00 35 1019.5
20260830221332 79 331 3.0 7.0 0.00 0.00 0.00 34 1019.8
20260830215432 78 314 2.0 5.0 0.00 0.00 0.00 36 1019.9
20260830214531 78 225 3.0 7.0 0.00 0.00 0.00 37 1020.1
20260830213629 78 208 2.0 5.0 0.00 0.00 0.00 37 1020.1
20260830212630 77 286 0.0 1.0 0.00 0.00 0.00 38 1020.1
20260830211630 77 202 1.0 5.0 0.00 0.00 0.00 38 1020.2
20260830211531 77 212 1.0 4.0 0.00 0.00 0.00 37 1020.2
20260830210630 78 192 3.0 7.0 0.00 0.00 0.00 36 1020.1
20260830204631 78 274 2.0 6.0 0.00 0.00 0.00 38 1020.1
20260830203729 78 270 2.0 5.0 0.00 0.00 0.00 38 1020.1
20260830202731 78 238 2.0 4.0 0.00 0.00 0.00 39 1020.1
20260830201729 77 225 0.0 0.0 0.00 0.00 0.00 39 1020.1
20260830200730 77 218 2.0 6.0 0.00 0.00 0.00 39 1020.1
20260830195732 77 185 4.0 9.0 0.00 0.00 0.00 39 1020.1
20260830194730 77 236 1.0 5.0 0.00 0.00 0.00 38 1020.2
20260830193730 77 355 0.0 2.0 0.00 0.00 0.00 40 1020.2
20260830192829 77 127 1.0 4.0 0.00 0.00 0.00 41 1020.1
20260830190831 76 165 2.0 4.0 0.00 0.00 0.00 41 1020.2
20260830185830 78 22 0.0 4.0 0.00 0.00 0.00 37 1020.4
20260830184831 78 247 0.0 1.0 0.00 0.00 0.00 34 1020.1
20260830183831 77 112 0.0 3.0 0.00 0.00 0.00 34 1020.2
20260830181832 76 112 0.0 1.0 0.00 0.00 0.00 34 1020.2
20260830180832 76 135 1.0 3.0 0.00 0.00 0.00 33 1020.4
20260830175930 75 135 0.0 2.0 0.00 0.00 0.00 33 1020.4
20260830175029 76 103 2.0 5.0 0.00 0.00 0.00 33 1020.3
20260830174029 75 157 0.0 0.0 0.00 0.00 0.00 35 1020.3
20260830173030 75 135 1.0 5.0 0.00 0.00 0.00 36 1020.3
20260830172129 75 112 0.0 0.0 0.00 0.00 0.00 36 1020.3
20260830171130 74 90 0.0 1.0 0.00 0.00 0.00 37 1020.4
20260830170229 73 100 0.0 1.0 0.00 0.00 0.00 40 1020.4
20260830170129 73 112 0.0 2.0 0.00 0.00 0.00 41 1020.4
20260830165131 72 112 0.0 2.0 0.00 0.00 0.00 46 1020.4
20260830163230 69 112 0.0 0.0 0.00 0.00 0.00 57 1020.6
20260830163131 68 112 0.0 0.0 0.00 0.00 0.00 58 1020.7
20260830162131 66 112 0.0 0.0 0.00 0.00 0.00 63 1020.8
20260830162030 66 112 0.0 0.0 0.00 0.00 0.00 64 1020.7
20260830161029 64 180 0.0 0.0 0.00 0.00 0.00 72 1020.8
20260830160031 62 180 0.0 0.0 0.00 0.00 0.00 82 1021.0
20260830155032 59 180 0.0 0.0 0.00 0.00 0.00 87 1021.2
20260830154029 57 180 0.0 0.0 0.00 0.00 0.00 86 1021.3
20260830153932 56 180 0.0 0.0 0.00 0.00 0.00 86 1021.2
20260830151929 53 180 0.0 0.0 0.00 0.00 0.00 93 1021.0
20260830150931 51 180 0.0 0.0 0.00 0.00 0.00 98 1021.0
20260830145932 49 180 0.0 0.0 0.00 0.00 0.00 98 1021.1
20260830144931 46 180 0.0 0.0 0.00 0.00 0.00 98 1021.2
20260830144831 46 180 0.0 0.0 0.00 0.00 0.00 98 1021.0
20260830143831 44 180 0.0 0.0 0.00 0.00 0.00 99 1020.9
20260830141831 43 180 0.0 0.0 0.00 0.00 0.00 99 1020.9
20260830140747 43 180 0.0 0.0 0.00 0.00 0.00 99 1020.8
20260830134830 43 180 0.0 0.0 0.00 0.00 0.00 97 1020.6
20260830133846 43 180 0.0 0.0 0.00 0.00 0.00 97 1020.5
20260830132832 43 180 0.0 0.0 0.00 0.00 0.00 97 1020.5
20260830131930 43 180 0.0 0.0 0.00 0.00 0.00 98 1020.6
20260830130929 43 180 0.0 0.0 0.00 0.00 0.00 98 1020.5
20260830130028 43 180 0.0 0.0 0.00 0.00 0.00 98 1020.4
20260830125128 44 180 0.0 0.0 0.00 0.00 0.00 98 1020.4
20260830124131 44 180 0.0 0.0 0.00 0.00 0.00 98 1020.4
20260830123228 44 180 0.0 0.0 0.00 0.00 0.00 98 1020.5
20260830122229 44 180 0.0 0.0 0.00 0.00 0.00 98 1020.5
20260830121229 44 180 0.0 0.0 0.00 0.00 0.00 98 1020.4
20260830115329 44 180 0.0 0.0 0.00 0.00 0.00 98 1020.5
20260830114329 44 180 0.0 0.0 0.00 0.00 0.00 98 1020.5
20260830113331 44 180 0.0 0.0 0.00 0.00 0.00 97 1020.6
20260830112229 44 180 0.0 0.0 0.00 0.00 0.00 98 1020.6
20260830111232 45 180 0.0 0.0 0.00 0.00 0.00 98 1020.6
20260830105328 45 180 0.0 0.0 0.00 0.00 0.00 97 1020.6
20260830104329 45 180 0.0 0.0 0.00 0.00 0.00 97 1020.7
20260830103330 45 180 0.0 0.0 0.00 0.00 0.00 96 1020.7
20260830102330 45 180 0.0 0.0 0.00 0.00 0.00 97 1020.6
20260830102230 45 180 0.0 0.0 0.00 0.00 0.00 97 1020.6
20260830101228 45 180 0.0 0.0 0.00 0.00 0.00 97 1020.7
20260830101130 45 180 0.0 0.0 0.00 0.00 0.00 97 1020.6
20260830100145 45 180 0.0 0.0 0.00 0.00 0.00 97 1020.6
20260830093230 46 180 0.0 0.0 0.00 0.00 0.00 95 1020.7
20260830092228 46 180 0.0 0.0 0.00 0.00 0.00 97 1020.7
20260830092130 46 180 0.0 0.0 0.00 0.00 0.00 97 1020.8
20260830091131 46 180 0.0 0.0 0.00 0.00 0.00 96 1020.8
20260830090130 46 180 0.0 0.0 0.00 0.00 0.00 96 1020.7
20260830085128 46 180 0.0 0.0 0.00 0.00 0.00 94 1020.6
20260830084133 46 180 0.0 0.0 0.00 0.00 0.00 94 1020.7
20260830083228 47 180 0.0 0.0 0.00 0.00 0.00 95 1020.8
20260830082230 47 180 0.0 0.0 0.00 0.00 0.00 95 1020.9
20260830082131 47 180 0.0 0.0 0.00 0.00 0.00 95 1021.0
20260830081130 47 180 0.0 0.0 0.00 0.01 0.00 94 1021.0
20260830080030 47 180 0.0 0.0 0.00 0.01 0.00 94 1021.0
20260830075029 48 180 0.0 0.0 0.00 0.01 0.00 94 1021.2
20260830074028 48 180 0.0 0.0 0.00 0.01 0.00 93 1021.2
20260830072030 48 180 0.0 0.0 0.00 0.01 0.00 91 1021.2
20260830071028 48 180 0.0 0.0 0.00 0.01 0.00 92 1021.4
20260830070128 48 360 0.0 0.0 0.00 0.01 0.00 90 1021.5
20260830065134 49 180 0.0 0.0 0.00 0.01 0.01 91 1021.4